VJC21 VVCT-VVCT

Flight info

Callsign VJC21
Flight time 0h 42m
Altitude 3000
Route TRAFFIC PATTERN
Aircraft A320/M-SDE3FGHIRWY/LB1

Departure

Time 2026-04-19 10:34
Airport Can Tho International Airport (VVCT)

Arrival

Time 2026-04-19 11:16
Airport Can Tho International Airport (VVCT)
Time Latitude Longitude Altitude Speed Heading
2026-04-19 10:22 10.08146 105.71135 19 ft 0 kts 150°
2026-04-19 10:23 10.08150 105.71133 19 ft 2 kts 150°
2026-04-19 10:23 10.08152 105.71132 19 ft 0 kts 150°
2026-04-19 10:27 10.08153 105.71131 19 ft 1 kts 150°
2026-04-19 10:27 10.08165 105.71124 19 ft 3 kts 150°
2026-04-19 10:27 10.08181 105.71113 19 ft 3 kts 134°
2026-04-19 10:27 10.08191 105.71095 19 ft 3 kts 108°
2026-04-19 10:28 10.08194 105.71075 19 ft 3 kts 84°
2026-04-19 10:28 10.08187 105.71055 19 ft 3 kts 60°
2026-04-19 10:28 10.08185 105.71051 19 ft 0 kts 59°
2026-04-19 10:30 10.08187 105.71056 19 ft 4 kts 60°
2026-04-19 10:30 10.08230 105.71088 19 ft 12 kts
2026-04-19 10:30 10.08317 105.71049 19 ft 16 kts 326°
2026-04-19 10:30 10.08385 105.70967 19 ft 18 kts 233°
2026-04-19 10:31 10.08314 105.70847 19 ft 22 kts 239°
2026-04-19 10:31 10.08234 105.70706 19 ft 24 kts 240°
2026-04-19 10:31 10.08144 105.70550 19 ft 27 kts 239°
2026-04-19 10:31 10.08046 105.70383 19 ft 28 kts 240°
2026-04-19 10:32 10.07946 105.70204 19 ft 30 kts 239°
2026-04-19 10:32 10.07840 105.70020 19 ft 31 kts 239°
2026-04-19 10:32 10.07689 105.69883 19 ft 26 kts 222°
2026-04-19 10:32 10.07680 105.69780 19 ft 10 kts 323°
2026-04-19 10:33 10.07731 105.69825 19 ft 17 kts 60°
2026-04-19 10:33 10.07907 105.70136 19 ft 86 kts 59°
2026-04-19 10:33 10.08316 105.70853 19 ft 148 kts 61°
2026-04-19 10:33 10.08862 105.71812 545 ft 156 kts 62°
2026-04-19 10:34 10.09409 105.72756 1302 ft 157 kts 62°
2026-04-19 10:34 10.09991 105.73754 1398 ft 166 kts 57°
2026-04-19 10:34 10.10796 105.74647 1449 ft 177 kts 41°
2026-04-19 10:34 10.11893 105.75203 1460 ft 179 kts 14°
2026-04-19 10:35 10.13156 105.75181 1434 ft 194 kts 343°
2026-04-19 10:35 10.14412 105.74458 1491 ft 218 kts 316°
2026-04-19 10:35 10.15274 105.73194 1529 ft 223 kts 290°
2026-04-19 10:35 10.15475 105.71655 1553 ft 222 kts 258°
2026-04-19 10:36 10.14879 105.70243 1596 ft 218 kts 228°
2026-04-19 10:36 10.13839 105.69133 1665 ft 218 kts 223°
2026-04-19 10:36 10.12755 105.68051 1598 ft 219 kts 223°
2026-04-19 10:36 10.11748 105.66864 1512 ft 220 kts 236°
2026-04-19 10:37 10.11006 105.65499 1341 ft 223 kts 240°
2026-04-19 10:37 10.10254 105.64153 1339 ft 217 kts 238°
2026-04-19 10:37 10.10182 105.64029 1351 ft 217 kts 238°
2026-04-19 10:38 10.09925 105.63592 1390 ft 217 kts 237°
2026-04-19 10:38 10.09146 105.62323 1408 ft 207 kts 230°
2026-04-19 10:38 10.08073 105.61539 1446 ft 180 kts 191°
2026-04-19 10:39 10.06942 105.61649 1351 ft 155 kts 147°
2026-04-19 10:39 10.06303 105.62441 1221 ft 148 kts 105°
2026-04-19 10:39 10.06077 105.63448 1099 ft 146 kts 101°
2026-04-19 10:39 10.05896 105.64451 1017 ft 140 kts 100°
2026-04-19 10:40 10.05815 105.65422 906 ft 138 kts 89°
2026-04-19 10:40 10.05954 105.66385 738 ft 138 kts 76°
2026-04-19 10:40 10.06310 105.67291 567 ft 139 kts 65°
2026-04-19 10:40 10.06784 105.68141 395 ft 139 kts 62°
2026-04-19 10:41 10.07260 105.68987 217 ft 138 kts 64°
2026-04-19 10:41 10.07734 105.69830 44 ft 138 kts 62°
2026-04-19 10:41 10.08168 105.70604 19 ft 113 kts 63°
2026-04-19 10:41 10.08562 105.71283 19 ft 114 kts 60°
2026-04-19 10:42 10.09039 105.72158 76 ft 165 kts 63°
2026-04-19 10:42 10.09398 105.72786 461 ft 172 kts 60°
2026-04-19 10:42 10.09997 105.73746 923 ft 193 kts 59°
2026-04-19 10:42 10.10838 105.74782 1154 ft 192 kts 39°
2026-04-19 10:43 10.12087 105.75440 1256 ft 206 kts 15°
2026-04-19 10:43 10.13473 105.75453 1316 ft 201 kts 345°
2026-04-19 10:43 10.14693 105.74770 1443 ft 209 kts 315°
2026-04-19 10:43 10.15467 105.73597 1632 ft 222 kts 289°
2026-04-19 10:44 10.15492 105.73530 1640 ft 222 kts 288°
2026-04-19 10:44 10.15697 105.72006 1627 ft 217 kts 261°
2026-04-19 10:44 10.15218 105.70609 1587 ft 206 kts 232°
2026-04-19 10:44 10.14276 105.69566 1559 ft 199 kts 223°
2026-04-19 10:45 10.13356 105.68521 1517 ft 199 kts 230°
2026-04-19 10:45 10.12563 105.67380 1472 ft 199 kts 237°
2026-04-19 10:45 10.11849 105.66179 1428 ft 198 kts 226°
2026-04-19 10:45 10.10987 105.65093 1436 ft 198 kts 224°
2026-04-19 10:46 10.10189 105.63961 1472 ft 198 kts 239°
2026-04-19 10:46 10.09554 105.62760 1515 ft 186 kts 236°
2026-04-19 10:46 10.08742 105.61776 1377 ft 175 kts 218°
2026-04-19 10:46 10.07724 105.61234 1221 ft 160 kts 185°
2026-04-19 10:47 10.06707 105.61422 1146 ft 149 kts 146°
2026-04-19 10:47 10.06046 105.62179 1096 ft 144 kts 110°
2026-04-19 10:47 10.05786 105.63157 1077 ft 144 kts 100°
2026-04-19 10:47 10.05687 105.64143 1107 ft 138 kts 91°
2026-04-19 10:48 10.05749 105.65119 999 ft 139 kts 83°
2026-04-19 10:48 10.05935 105.66075 834 ft 138 kts 78°
2026-04-19 10:48 10.06225 105.66998 659 ft 137 kts 70°
2026-04-19 10:48 10.06635 105.67883 484 ft 140 kts 62°
2026-04-19 10:49 10.07120 105.68738 289 ft 140 kts 62°
2026-04-19 10:49 10.07598 105.69593 87 ft 139 kts 62°
2026-04-19 10:49 10.08061 105.70416 19 ft 121 kts 63°
2026-04-19 10:49 10.08499 105.71178 19 ft 146 kts 60°
2026-04-19 10:50 10.09055 105.72153 456 ft 165 kts 60°
2026-04-19 10:50 10.09667 105.73133 1197 ft 165 kts 58°
2026-04-19 10:50 10.10397 105.74104 1508 ft 186 kts 44°
2026-04-19 10:50 10.11527 105.74775 1575 ft 192 kts 16°
2026-04-19 10:51 10.12869 105.74789 1649 ft 199 kts 346°
2026-04-19 10:51 10.14076 105.74114 1621 ft 202 kts 315°
2026-04-19 10:51 10.14795 105.72910 1596 ft 201 kts 284°
2026-04-19 10:51 10.14826 105.71518 1573 ft 199 kts 253°
2026-04-19 10:52 10.14200 105.70294 1560 ft 196 kts 230°
2026-04-19 10:52 10.13259 105.69310 1542 ft 194 kts 218°
2026-04-19 10:52 10.12338 105.68307 1523 ft 196 kts 233°
2026-04-19 10:52 10.11618 105.67110 1511 ft 197 kts 237°
2026-04-19 10:53 10.10898 105.65941 1498 ft 192 kts 236°
2026-04-19 10:53 10.10193 105.64847 1465 ft 178 kts 236°
2026-04-19 10:53 10.09556 105.63842 1459 ft 161 kts 230°
2026-04-19 10:53 10.08669 105.63224 1373 ft 156 kts 190°
2026-04-19 10:54 10.07640 105.63315 1243 ft 148 kts 150°
2026-04-19 10:54 10.06840 105.63950 1140 ft 146 kts 130°
2026-04-19 10:54 10.06314 105.64826 1050 ft 145 kts 110°
2026-04-19 10:54 10.06131 105.65813 864 ft 143 kts 92°
2026-04-19 10:55 10.06211 105.66801 644 ft 140 kts 79°
2026-04-19 10:55 10.06529 105.67723 464 ft 139 kts 61°
2026-04-19 10:55 10.07037 105.68557 293 ft 138 kts 63°
2026-04-19 10:55 10.07498 105.69412 128 ft 138 kts 62°
2026-04-19 10:56 10.07972 105.70249 18 ft 128 kts 60°
2026-04-19 10:56 10.08393 105.70990 19 ft 129 kts 59°
2026-04-19 10:56 10.08919 105.71910 328 ft 159 kts 60°
2026-04-19 10:56 10.09521 105.72873 1065 ft 165 kts 58°
2026-04-19 10:57 10.10199 105.73856 1622 ft 179 kts 56°
2026-04-19 10:57 10.11084 105.74742 1626 ft 187 kts 26°
2026-04-19 10:57 10.12385 105.74831 1656 ft 199 kts 342°
2026-04-19 10:57 10.13452 105.73971 1538 ft 201 kts 298°
2026-04-19 10:58 10.13651 105.72614 1433 ft 197 kts 253°
2026-04-19 10:58 10.12997 105.71424 1350 ft 194 kts 235°
2026-04-19 10:58 10.12285 105.70272 1412 ft 194 kts 238°
2026-04-19 10:58 10.11626 105.69074 1452 ft 195 kts 241°
2026-04-19 10:59 10.10973 105.67866 1495 ft 195 kts 239°
2026-04-19 10:59 10.10328 105.66651 1539 ft 197 kts 240°
2026-04-19 10:59 10.09676 105.65409 1554 ft 198 kts 240°
2026-04-19 10:59 10.09026 105.64184 1544 ft 197 kts 239°
2026-04-19 11:00 10.08204 105.63112 1515 ft 189 kts 213°
2026-04-19 11:00 10.07033 105.62701 1428 ft 173 kts 177°
2026-04-19 11:00 10.05957 105.63057 1311 ft 159 kts 143°
2026-04-19 11:00 10.05154 105.63760 1176 ft 149 kts 124°
2026-04-19 11:01 10.04857 105.64727 1022 ft 146 kts 81°
2026-04-19 11:01 10.05325 105.65617 922 ft 144 kts 56°
2026-04-19 11:01 10.05818 105.66488 767 ft 142 kts 65°
2026-04-19 11:01 10.06312 105.67350 581 ft 141 kts 60°
2026-04-19 11:02 10.06807 105.68201 394 ft 140 kts 61°
2026-04-19 11:02 10.07289 105.69056 204 ft 139 kts 62°
2026-04-19 11:02 10.07776 105.69902 36 ft 138 kts 62°
2026-04-19 11:02 10.08226 105.70699 19 ft 121 kts 59°
2026-04-19 11:03 10.08708 105.71547 111 ft 156 kts 62°
2026-04-19 11:03 10.09270 105.72501 819 ft 160 kts 59°
2026-04-19 11:03 10.09922 105.73413 1480 ft 166 kts 46°
2026-04-19 11:03 10.10982 105.73919 1612 ft 185 kts
2026-04-19 11:04 10.12159 105.73367 1740 ft 197 kts 307°
2026-04-19 11:04 10.12554 105.72053 1765 ft 202 kts 268°
2026-04-19 11:04 10.12246 105.70686 1639 ft 198 kts 240°
2026-04-19 11:04 10.11574 105.69475 1553 ft 196 kts 238°
2026-04-19 11:05 10.10908 105.68273 1540 ft 196 kts 239°
2026-04-19 11:05 10.10256 105.67063 1523 ft 196 kts 238°
2026-04-19 11:05 10.09565 105.65876 1507 ft 195 kts 236°
2026-04-19 11:05 10.08853 105.64691 1515 ft 194 kts 237°
2026-04-19 11:06 10.08167 105.63524 1519 ft 196 kts 231°
2026-04-19 11:06 10.07123 105.62707 1437 ft 184 kts 197°
2026-04-19 11:06 10.05916 105.62660 1312 ft 169 kts 161°
2026-04-19 11:06 10.04996 105.63256 1156 ft 151 kts 125°
2026-04-19 11:07 10.04727 105.64227 1043 ft 142 kts 78°
2026-04-19 11:07 10.05116 105.65148 977 ft 144 kts 61°
2026-04-19 11:07 10.05572 105.66040 840 ft 143 kts 65°
2026-04-19 11:07 10.06078 105.66898 664 ft 141 kts 59°
2026-04-19 11:08 10.06569 105.67755 493 ft 140 kts 63°
2026-04-19 11:08 10.07040 105.68612 320 ft 140 kts 61°
2026-04-19 11:08 10.07523 105.69465 112 ft 139 kts 61°
2026-04-19 11:08 10.07997 105.70295 19 ft 128 kts 58°
2026-04-19 11:09 10.08453 105.71094 19 ft 149 kts 60°
2026-04-19 11:09 10.09011 105.72058 604 ft 159 kts 61°
2026-04-19 11:09 10.09619 105.73074 1133 ft 175 kts 59°
2026-04-19 11:09 10.10428 105.74066 1353 ft 188 kts 37°
2026-04-19 11:10 10.11641 105.74572 1426 ft 193 kts
2026-04-19 11:10 10.12907 105.74212 1505 ft 195 kts 322°
2026-04-19 11:10 10.13627 105.73062 1534 ft 199 kts 279°
2026-04-19 11:10 10.13421 105.71720 1560 ft 195 kts 240°
2026-04-19 11:11 10.12725 105.70540 1574 ft 196 kts 236°
2026-04-19 11:11 10.12011 105.69365 1565 ft 196 kts 236°
2026-04-19 11:11 10.11295 105.68192 1558 ft 195 kts 236°
2026-04-19 11:11 10.10583 105.67024 1551 ft 195 kts 236°
2026-04-19 11:12 10.10013 105.66085 1545 ft 195 kts 236°
2026-04-19 11:12 10.09857 105.65826 1543 ft 195 kts 236°
2026-04-19 11:12 10.09144 105.64637 1535 ft 195 kts 238°
2026-04-19 11:12 10.08467 105.63452 1522 ft 194 kts 231°
2026-04-19 11:13 10.07489 105.62571 1490 ft 183 kts 205°
2026-04-19 11:13 10.06322 105.62241 1380 ft 170 kts 179°
2026-04-19 11:13 10.05226 105.62492 1248 ft 156 kts 149°
2026-04-19 11:13 10.04506 105.63220 1156 ft 147 kts 109°
2026-04-19 11:14 10.04553 105.64203 1095 ft 144 kts 63°
2026-04-19 11:14 10.05046 105.65071 991 ft 141 kts 63°
2026-04-19 11:14 10.05500 105.65947 846 ft 140 kts 60°
2026-04-19 11:14 10.06013 105.66777 679 ft 139 kts 60°
2026-04-19 11:15 10.06491 105.67624 509 ft 138 kts 62°
2026-04-19 11:15 10.06969 105.68465 339 ft 138 kts 62°
2026-04-19 11:15 10.07438 105.69309 159 ft 138 kts 62°
2026-04-19 11:15 10.07915 105.70153 18 ft 128 kts 60°
2026-04-19 11:16 10.08264 105.70759 18 ft 72 kts 60°
2026-04-19 11:16 10.08385 105.70978 19 ft 14 kts 78°
2026-04-19 11:16 10.08309 105.71055 19 ft 18 kts 149°
2026-04-19 11:16 10.08232 105.71117 19 ft 13 kts 112°
2026-04-19 11:17 10.08187 105.71161 19 ft 8 kts 149°
2026-04-19 11:17 10.08179 105.71166 19 ft 0 kts 148°